Weather in Mashivka

Ukraine / Poltava Region     49˚26′40″N   34˚52′12″E
temp.,
°C
wind,
m/s
gust,
m/s
humid.,
%
clouds,
%
prec.,
mm/h
press.,
hPa
HPBL,
m
28 november, sat
sat2823:00+3˚wsw3376100 0.0 102078
02:00+3˚sw2376100 0.0 1019100
05:00+3˚ssw2277100 0.0 101968
08:00+3˚sse2377100 0.0 1020135
11:00+6˚s3667100 0.0 1020309
14:00+5˚s2997100 0.8 1018404
17:00+6˚s41291100 1.4 1019643
20:00+7˚s31185100 2.1 1019520
29 november, sun
sun2923:00+7˚sse51287100 0.2 1020550
02:00+6˚sse51182100 0.2 1020465
05:00+7˚sse61279100 0.0 1019478
08:00+6˚sse71376100 0.1 1021446
11:00+7˚sse71272100 0.0 1021546
14:00+8˚sse71074100 0.0 1022652
17:00+7˚se5979100 0.1 1022437
20:00+6˚se61181100 0.2 1023413
30 november, mon
mon3023:00+6˚se61086100 0.1 1023378
02:00+5˚se5992100 0.1 1023411
05:00+4˚se6989100 0.0 1022428
08:00+4˚se6990100 0.0 1024458
11:00+5˚se6885100 0.0 1024555
14:00+6˚se5880100 0.0 1024672
17:00+6˚se5977100 0.0 1024699
20:00+4˚se4978100 0.0 1025580
1 december, tue
tue123:00+4˚ese3779100 0.0 1025316
02:00+4˚ese2477100 0.0 1025162
05:00+4˚ese3777100 0.0 1025421
08:00+3˚ese4671100 0.0 1026443
11:00+3˚e4567100 0.0 1026588
14:00+2˚e4581100 0.0 1026517
17:00+1˚e4695100 0.1 1026364
20:00+1˚e4792100 0.1 1027479
2 december, wed
wed223:00+1˚e4696100 0.1 1027336
02:00+1˚e4696100 0.1 1027351
05:00e4693100 0.1 1027344
08:00e4694100 0.3 1028358
11:00+1˚e4693100 0.2 1028389
14:00+2˚e4583100 0.2 1027414
17:00+1˚e4792100 0.0 1027397
20:00+2˚ese4783100 0.0 1028506